Location: Camp at the Woods
(43.2055°N, 93.0905°W)
Time: 00:59:37
(UTC+00:00)

Cosmos 2227 Rocket - Pass Details

Date: 28 May 2025
Orbit: 837 x 844 km, 71.0° (Epoch: 12 June)

Event Time Altitude Azimuth Distance (km) Brightness Sun altitude
Exits shadow 05:37:43 14° 95° (E) 2,202 4.2 -24.9°
Drops below altitude 10° 05:40:15 10° 68° (ENE) 2,458 4.8 -24.9°
Sets 05:43:58 0° 44° (NE) 3,400 5.9 -25.0°
